Regional Weather Roundup
Issued by NWS Portland, ME

Current Version | Previous Version | Text Only | Print | Product List | Glossary Off
Versions: 1 2 3 4 5 6 7 8 9 10 11 12 13 14 15 16 17 18 19 20 21 22 23 24 25 26 27 28 29 30 31 32 33 34 35 36 37 38 39 40 41 42 43 44 45 46 47 48 49 50
000 ASUS41 KGYX 252005 RWRGYX WEATHER ROUNDUP FOR MAINE AND NEW HAMPSHIRE NATIONAL WEATHER SERVICE GRAY ME 400 PM EDT SAT MAR 25 2017 MEZ002-005-006-010-012-015-018-020-021-024-026-027-029-252100- MAINE CITY SKY/WX TMP DP RH WIND PRES REMARKS PORTLAND CLOUDY 41 29 62 NW5 30.27F SANFORD CLOUDY 38 34 85 W3 30.27F BAR HARBOR CLOUDY 42 25 50 NW7 30.23R WISCASSET CLOUDY 42 29 59 VRB3 30.26S ROCKLAND CLOUDY 41 30 65 CALM 30.24S FRYEBURG CLOUDY 39 32 76 SW3 30.25F LEWISTONAUBURN CLOUDY 42 26 53 NW8 30.25S AUGUSTA CLOUDY 42 23 46 N5 30.24S WATERVILLE CLOUDY 42 24 49 N7 30.21F BANGOR CLOUDY 40 24 53 NW12 30.23R GREENVILLE N/A 36 14 40 NW15G22 30.16S MILLINOCKET CLOUDY 40 4 22 NW14 30.22R HOULTON SUNNY 36 7 29 N13 30.18R PRESQUE ISLE SUNNY 32 4 30 N16G23 30.22S FRENCHVILLE SUNNY 28 -5 23 NW13G24 30.21S WCI 17 CARIBOU SUNNY 32 4 30 NW13G22 30.21R $$ NHZ002-005-008-009-011-012-014-252100- NEW HAMPSHIRE CITY SKY/WX TMP DP RH WIND PRES REMARKS PORTSMOUTH LGT SNOW 35 33 95 W6 30.28R FOG ROCHESTER CLOUDY 36 33 89 CALM 30.27S NASHUA CLOUDY 35 35 100 VRB3 30.29F FOG MANCHESTER FOG 34 31 88 NW3 30.28F VSB 3/4 CONCORD CLOUDY 36 34 92 CALM 30.28S LACONIA CLOUDY 38 33 82 SW7 30.27S PLYMOUTH PTSUNNY 39 30 69 W9G17 30.27R BERLIN PTSUNNY 36 21 54 N8 30.27R WHITEFIELD CLOUDY 36 26 67 NW7 30.28R JAFFREY CLOUDY 35 33 92 CALM 30.26R KEENE CLOUDY 35 33 92 CALM 30.30S LEBANON CLOUDY 37 33 85 CALM 30.30S MT WASHINGTON PTSUNNY 16 1 53 NW35 N/A WCI -6 $$ VTZ005-007-008-252100- VERMONT CITY SKY/WX TMP DP RH WIND PRES REMARKS ST JOHNSBURY N/A 36 26 67 MISG 30.30R MONTPELIER CLOUDY 33 29 85 N6 30.34R BURLINGTON CLOUDY 34 26 72 N10 30.37R $$ MAZ007-012-024-CTZ003-RIZ002-NYZ038-NYZ072-252100- SOUTHERN NEW ENGLAND AND NY CITY SKY/WX TMP DP RH WIND PRES REMARKS BOSTON LGT RAIN 37 35 92 E3 30.28F FOG WORCESTER LGT RAIN 34 32 92 S5 30.24F FOG NANTUCKET CLOUDY 41 33 73 N17 30.26R PROVIDENCE LGT RAIN 40 37 89 NE13 30.30R FOG HARTFORD LGT RAIN 38 37 97 NW7 30.31R FOG ALBANY CLOUDY 36 32 85 N7 30.34R FOG NEW YORK CITY LGT RAIN 54 40 59 NE9 30.23R $$ ANZ081-ANZ082-ANZ150-NHZ014-MEZ023>029-252100- COASTAL MARINE OBSERVATIONS STATION/POSITION TIME TEMP WIND PRES WAVE AIR SEA DIR/SP/G HT/PER (UTC) (F) (DEG/KT/KT) (MB) (FT/S) MOUNT DESERT ROC 2000 38 1023.9R MATINICUS ROCK 1900 37 260/ 12/ 14 1023.8R ISLE OF SHOALS 1900 33 260/ 6/ 6 1025.8R JEFFREYS LEDGE 1906 40 N/A 2/ 4 CASHES LEDGE BUO 1850 39 40 1025.0 3/ 5 GEORGES BANK BUO 1850 40 41 1020.8 8/ 9 $$ .............KEY.............. WCI - WIND CHILL TC - TEMPERATURE IN CELSIUS VSB - VISIBILITY IN MILES HX - HEAT INDEX FAIR- INDICATES FEW OR NO CLOUDS BELOW 12,000 FT, WITH NO SIGNIFICANT WEATHER AND/OR OBSTRUCTIONS TO VISIBILITY.

USA.gov is the U.S. government's official web portal to all federal, state and local government web resources and services.